Location: Bemmer
(51.5498°N, 5.6249°E)
Time: 02:44:26
(UTC+00:00)

SeaSat 1 - Pass Details

Date: 03 March 2021
Orbit: 744 x 747 km, 108.0° (Epoch: 12 April)

Event Time Altitude Azimuth Distance (km) Brightness Sun altitude
Rises 17:55:02 0° 39° (NE) 3,202 5.3 -6.0°
Reaches altitude 10° 17:57:42 10° 53° (NE) 2,274 4.5 -6.4°
Maximum altitude 18:01:44 25° 107° (ESE) 1,494 3.5 -7.0°
Drops below altitude 10° 18:05:44 10° 162° (SSE) 2,261 4.8 -7.7°
Sets 18:08:23 0° 176° (S) 3,180 5.7 -8.1°
